Location: Dresden
(51.0300°N, 13.7800°E)
Time: 17:15:45
(UTC+01:00)

NOAA 9 - Visible Passes

Search period start: 18 January 2026 00:00
Search period end: 28 January 2026 00:00
Orbit: 824 x 847 km, 99.1° (Epoch: 18 January)

Date Brightness Start Highest point End Pass type
(mag) Time Alt. Az. Time Alt. Az. Time Alt. Az.
18 Jan 6.4 06:46:44 10° NNE 06:51:44 36° E 06:56:42 10° SSE visible
18 Jan 4.7 18:16:01 10° SSE 18:21:23 80° WSW 18:26:49 10° NNW visible
18 Jan 7.6 19:59:55 10° WSW 20:02:37 14° W 20:05:19 10° NW visible
19 Jan 7.0 06:30:41 10° NE 06:35:17 28° E 06:39:53 10° SSE visible
19 Jan 4.6 17:59:44 10° SSE 18:05:06 78° ENE 18:10:30 10° NNW visible
19 Jan 7.3 19:42:21 10° SW 19:46:05 19° W 19:49:49 10° NW visible
20 Jan 7.4 06:14:47 10° NE 06:18:49 21° E 06:22:50 10° SE visible
20 Jan 4.7 17:43:35 10° SE 17:48:51 59° ENE 17:54:09 10° N visible
20 Jan 6.8 19:25:13 10° SSW 19:29:35 25° W 19:33:59 10° NW visible
21 Jan 7.7 05:59:07 10° NE 06:02:18 16° E 06:05:28 10° ESE visible
21 Jan 4.9 17:27:33 10° SE 17:32:37 45° ENE 17:37:45 10° N visible
21 Jan 6.4 19:08:19 10° SSW 19:13:08 33° W 19:17:59 10° NNW visible
22 Jan 8.0 05:44:07 10° ENE 05:45:44 11° E 05:47:20 10° ESE visible
22 Jan 5.2 17:11:38 10° SE 17:16:27 35° ENE 17:21:18 10° N visible
22 Jan 5.8 18:51:36 10° S 18:56:43 44° W 19:01:52 10° NNW visible
23 Jan 5.8 07:05:29 10° NNE 07:10:45 50° E 07:16:02 10° S visible
23 Jan 5.3 18:35:03 10° S 18:40:20 59° WSW 18:45:41 10° NNW visible
24 Jan 6.4 06:49:19 10° NNE 06:54:22 38° E 06:59:24 10° SSE visible
24 Jan 4.8 18:18:38 10° SSE 18:24:00 78° WSW 18:29:25 10° NNW visible
24 Jan 7.7 20:02:43 10° WSW 20:05:15 13° W 20:07:50 10° WNW visible
25 Jan 6.9 06:33:16 10° NE 06:37:56 28° E 06:42:36 10° SSE visible
25 Jan 4.6 18:02:20 10° SSE 18:07:43 80° ENE 18:13:07 10° NNW visible
25 Jan 7.3 19:45:05 10° SW 19:48:43 18° W 19:52:22 10° NW visible
26 Jan 7.4 06:17:21 10° NE 06:21:27 22° E 06:25:34 10° SE visible
26 Jan 4.7 17:46:10 10° SSE 17:51:27 61° ENE 17:56:46 10° N visible
26 Jan 6.9 19:27:54 10° SW 19:32:13 24° W 19:36:33 10° NW visible
27 Jan 7.7 06:01:38 10° NE 06:04:57 16° E 06:08:14 10° SE visible
27 Jan 4.9 17:30:07 10° SE 17:35:14 46° ENE 17:40:23 10° N visible
27 Jan 6.4 19:10:59 10° SSW 19:15:45 32° W 19:20:34 10° NNW visible
